Location: Degersen
(52.2871°N, 9.5716°E)
Time: 23:13:26
(UTC+00:00)

Meteor 2-10 Rocket - Visible Passes

Search period start: 18 April 2026 00:00
Search period end: 28 April 2026 00:00
Orbit: 732 x 882 km, 81.2° (Epoch: 18 April)

Date Brightness Start Highest point End Pass type
(mag) Time Alt. Az. Time Alt. Az. Time Alt. Az.
18 Apr 4.8 02:36:13 10° N 02:41:01 41° ENE 02:45:54 10° SE visible
19 Apr 5.4 02:11:18 10° N 02:15:48 31° ENE 02:20:24 10° SE visible
20 Apr 5.8 01:46:26 10° N 01:50:33 24° ENE 01:54:44 10° ESE visible
20 Apr 3.5 03:27:58 10° NNW 03:32:58 60° W 03:38:05 10° S visible
21 Apr 6.1 01:21:41 10° NNE 01:25:15 19° ENE 01:28:52 10° ESE visible
21 Apr 3.5 03:02:49 10° NNW 03:07:54 81° W 03:13:09 10° S visible
22 Apr 6.3 00:57:06 10° NNE 00:59:54 15° NE 01:02:43 10° E visible
22 Apr 3.7 02:37:44 10° N 02:42:50 75° ENE 02:48:05 10° SSE visible
23 Apr 6.5 00:33:00 10° NNE 00:34:30 11° NE 00:36:01 10° ENE visible
23 Apr 4.2 02:12:41 10° N 02:17:43 56° ENE 02:22:53 10° SSE visible
24 Apr 4.8 01:47:42 10° N 01:52:33 41° ENE 01:57:32 10° SE visible
25 Apr 5.2 01:22:46 10° N 01:27:21 32° ENE 01:32:02 10° SE visible
25 Apr 3.9 03:04:38 10° NNW 03:09:31 45° W 03:14:33 10° SSW visible
26 Apr 5.7 00:57:54 10° N 01:02:06 24° ENE 01:06:23 10° ESE visible
26 Apr 3.6 02:39:25 10° NNW 02:44:31 61° W 02:49:46 10° S visible
27 Apr 6.0 00:33:09 10° NNE 00:36:48 19° ENE 00:40:31 10° ESE visible
27 Apr 3.5 02:14:18 10° NNW 02:19:28 83° W 02:24:50 10° S visible
